Location: Boca de Tacagua
(10.5333°N, 66.9833°W)
Time: 06:42:06
(UTC+00:00)

Cosmos 1536 - Pass Details

Date: 05 July 2022
Orbit: 536 x 556 km, 82.5° (Epoch: 12 August)

Event Time Altitude Azimuth Distance (km) Brightness Sun altitude
Exits shadow 08:35:01 76° 253° (WSW) 570 2.6 -22.0°
Maximum altitude 08:35:07 77° 273° (W) 568 2.6 -21.9°
Drops below altitude 10° 08:39:09 10° 0° (N) 1,828 5.8 -21.1°
Sets 08:41:19 0° 2° (N) 2,724 6.8 -20.6°
